Location: Wyoming Infrared Observatory
(41.0971°N, 105.9765°W)
Time: 01:13:42
(UTC-06:00)

Daily predictions for brighter satellites

Satellite Brightness Start Highest point End
(mag) Time Altitude Azimuth Time Altitude Azimuth Time Altitude Azimuth
Cosmos 2278 Rocket 4.0 00:19:30 10° NNW 00:22:10 26° N 00:22:10 26° N
Cosmos 2360 Rocket 4.4 00:53:36 19° NW 00:53:36 19° NW 00:56:58 10° N
ATLAS 3B R/B 3.7 01:11:34 47° NNE 01:11:34 47° NNE 01:16:33 10° NNE
Cosmos 2219 Rocket 4.2 01:15:04 24° N 01:15:04 24° N 01:17:26 10° NNE
SL-16 R/B 4.2 01:33:34 24° NNE 01:33:34 24° NNE 01:35:46 10° NNE
Cosmos 2237 Rocket 4.1 01:36:05 26° N 01:36:05 26° N 01:38:41 10° NNE
Cosmos 2333 Rocket 4.1 01:39:39 26° N 01:39:39 26° N 01:42:30 10° N
USA 238 DEB 4.3 02:09:44 52° NNE 02:09:44 52° NNE 02:15:03 10° NNE
USA 238 4.3 02:09:51 52° NNE 02:09:51 52° NNE 02:15:09 10° NNE
CZ-3A R/B 4.3 02:15:03 47° SE 02:16:34 50° ESE 02:54:31 10° NE
NOSS 3-2 (A) 4.4 02:24:12 42° NE 02:24:12 42° NE 02:28:35 10° NE
CZ-4C R/B 3.4 02:38:51 38° N 02:38:51 38° N 02:42:58 10° NNE
NOSS 3-2 (C) 4.1 02:41:57 51° ENE 02:41:57 51° ENE 02:46:58 10° NE
Resurs 1-4 Rocket 4.0 02:45:58 10° NE 02:49:54 21° E 02:49:54 21° E
Cosmos 2369 Rocket 3.2 02:45:41 10° NNW 02:49:58 43° NNE 02:49:58 43° NNE
SL-16 R/B 3.7 02:54:57 27° ESE 02:57:24 37° ENE 03:03:02 10° N
Cosmos 1553 Rocket 4.4 02:59:17 57° N 02:59:17 57° N 03:04:04 10° N
ATLAS 3B R/B 4.4 02:58:48 22° WNW 03:00:50 25° NW 03:06:41 10° NNE
Cosmos 1745 Rocket 4.3 02:56:32 10° N 03:01:47 63° N 03:01:47 63° N
Cosmos 1943 Rocket 3.9 03:01:07 10° N 03:06:05 30° NE 03:11:01 10° ESE
SL-16 R/B 4.1 03:15:27 19° NW 03:15:27 19° NW 03:18:48 10° N
Cosmos 839 Rocket 4.2 03:12:02 10° NNW 03:20:10 81° WSW 03:20:10 81° WSW
Cosmos 2263 4.3 03:24:13 10° NNW 03:30:02 76° ENE 03:30:05 76° ENE
Cosmos 1302 Rocket 4.3 03:26:14 10° NNW 03:30:53 63° NNE 03:30:53 63° NNE
Meteor 2-10 4.2 03:36:17 74° E 03:36:17 74° E 03:41:33 10° NNE
ATLAS 5 CENTAUR R/B 2.2 03:38:42 64° ENE 03:38:42 64° ENE 03:43:12 10° NE
UNK 4.2 03:39:10 57° NE 03:39:10 57° NE 03:43:07 10° N
SeaSat 1 4.5 03:39:18 10° ESE 03:43:24 27° NE 03:47:31 10° N
Cosmos 883 Rocket 4.3 03:44:38 72° W 03:44:41 72° W 03:50:51 10° N
IRS-1D 3.5 03:39:50 10° NNE 03:45:05 79° ESE 03:45:08 79° ESE
Spot 4 Rocket 4.2 03:40:32 10° N 03:45:03 62° NNW 03:45:03 62° NNW
Okean O Rocket 3.9 03:42:33 10° NE 03:45:54 20° E 03:47:57 15° SE
ARIANE 5 R/B 2.4 03:45:17 10° NNE 03:50:30 86° NW 03:50:30 86° NW
USA 234 3.2 03:45:27 10° NE 03:52:01 75° SE 03:53:25 57° SSW
Cosmos 389 Rocket 4.1 03:54:56 33° ENE 03:54:56 33° ENE 03:57:26 10° NNE
IRAS Rocket 4.4 03:52:33 10° N 03:58:01 54° WNW 03:58:01 54° WNW
Meteor 2-11 Rocket 4.3 04:00:43 57° SSW 04:02:05 86° W 04:08:12 10° N
EO 1 Del DPAF 3.8 04:02:57 57° NNE 04:02:57 57° NNE 04:06:17 10° N
CZ-2D R/B 1.9 03:57:48 10° NNE 04:03:06 86° WNW 04:03:41 71° SSW
ADEOS 4.1 03:58:33 10° N 04:03:07 43° WNW 04:03:07 43° WNW
Abrixas rocket 4.2 04:05:14 27° NNE 04:05:14 27° NNE 04:08:07 10° ENE
Cosmos 2315 Rocket 3.9 04:04:20 57° SW 04:05:29 70° W 04:11:47 10° N
UNKNOWN OBJECT B 3.3 04:01:48 10° NNE 04:04:54 55° NE 04:04:54 55° NE
Cosmos 1869 3.4 04:15:00 65° NNW 04:15:00 65° NNW 04:18:29 10° N
Cosmos 1862 Rocket 3.4 04:16:35 79° W 04:16:38 79° W 04:21:04 10° N
ARGOS Delta rocket 3.8 04:17:35 10° NNE 04:21:59 68° E 04:23:27 40° S
CENTAUR R/B 2.4 04:20:53 44° SW 04:23:02 85° NW 04:29:57 10° NE
Cosmos 1992 Rocket 4.4 04:19:05 10° NNW 04:24:17 64° ENE 04:29:28 10° SSE
Cosmos 1943 4.3 04:24:19 28° WNW 04:25:03 28° NW 04:29:55 10° N
SL-27 R/B 2.5 04:27:22 75° NNW 04:27:22 75° NNW 04:30:46 10° NNE
CZ-4C R/B 4.5 04:24:12 10° NW 04:27:16 14° NNW 04:30:31 10° N
Resurs 1-4 Rocket 2.4 04:24:55 10° N 04:29:58 48° WNW 04:30:59 42° WSW
Cosmos 1933 3.5 04:28:56 41° SSE 04:30:14 71° E 04:34:20 10° NNE
Cosmos 1455 3.4 04:32:51 30° NW 04:32:51 30° NW 04:35:34 10° N
MTI 4.3 04:32:59 50° NNW 04:32:59 50° NNW 04:35:36 10° NNW
COSMOS 2406 3.2 04:30:18 34° SSW 04:32:55 85° ESE 04:38:43 10° NNE
Cosmos 2369 Rocket 4.1 04:30:33 10° NW 04:31:41 14° WNW 04:31:41 14° WNW
CZ-4B R/B 3.6 04:35:28 10° NNE 04:39:02 46° E 04:41:32 19° SSE
USA 32 4.4 04:34:32 11° S 04:39:26 65° E 04:44:38 10° N
ADEOS II 4.0 04:36:04 10° NE 04:40:31 27° E 04:44:56 10° SSE
Cosmos 1733 Rocket 3.8 04:36:39 10° NNW 04:40:10 35° WNW 04:40:10 35° WNW
SL-16 R/B 3.0 04:40:03 33° WSW 04:41:00 35° W 04:46:37 10° NNW
CZ-4B R/B 3.4 04:37:56 10° NNE 04:43:13 65° ESE 04:48:00 12° S
Cosmos 1408 2.5 04:41:02 10° N 04:44:48 85° W 04:46:54 25° S
Atlas Centaur 2 3.5 04:44:53 15° S 04:45:35 15° SSE 04:48:19 10° SE
Nadezhda 1 Rocket 4.0 04:40:35 12° S 04:46:23 85° E 04:52:47 10° N
BREEZE-M DEB (TANK) 3.4 04:46:22 39° SSE 04:46:44 42° SE 04:50:36 10° ENE
Cosmos 1943 Rocket 2.5 04:44:40 10° NW 04:49:55 40° WSW 04:55:07 10° S
Cosmos 1782 Rocket 3.7 04:47:00 10° N 04:51:21 72° E 04:55:39 10° SSE
CZ-2C R/B 3.5 04:47:36 10° S 04:52:02 78° WSW 04:56:29 10° NNW
AVUM R/B 4.3 04:51:32 24° SSE 04:53:03 42° ESE 04:56:14 10° NE
ERS-2 4.4 04:51:26 10° NW 04:52:30 13° NW 04:52:30 13° NW
CZ-2D R/B 4.1 04:55:21 10° N 04:59:25 38° WNW 05:00:46 30° WSW
PSLV R/B 3.8 04:56:21 10° N 05:00:04 55° WNW 05:01:39 31° SW
IRS-1C Rocket 4.1 04:55:59 10° N 05:01:13 66° WNW 05:05:08 18° SSW
Cosmos 1825 2.5 05:01:57 10° NNW 05:05:34 43° W 05:07:35 22° SSW
Cosmos 1908 Rocket 4.0 05:07:29 10° NNW 05:11:31 37° W 05:14:36 16° SSW
Cosmos 2074 Rocket 4.3 05:06:56 10° NNW 05:12:46 44° W 05:18:36 10° SSW
Cosmos 407 Rocket 3.5 05:08:12 12° SSW 05:13:04 89° WNW 05:18:23 10° NNE
Cosmos 1656 Rocket 3.7 05:11:45 10° NW 05:16:58 50° WSW 05:22:10 10° S
Cosmos 2154 Rocket 4.0 05:12:00 10° N 05:18:21 82° W 05:24:42 10° S
Cosmos 2184 Rocket 4.4 05:13:20 10° NNW 05:19:14 41° W 05:25:05 10° SSW
SeaSat 1 2.7 05:16:03 10° S 05:20:43 43° WSW 05:25:25 10° NW
Okean O Rocket 2.3 05:18:16 10° N 05:22:22 37° WNW 05:25:25 16° SW
ATLAS 5 CENTAUR R/B 3.7 05:20:16 12° WNW 05:23:21 19° NW 05:27:12 10° N
GPS 2-05 Rocket1 4.1 05:22:16 18° SSW 05:23:55 26° S 05:26:45 10° ESE
Cosmos 2221 Rocket 4.0 05:21:22 15° SW 05:24:41 41° WNW 05:28:53 10° N
PAYLOAD B 4.4 05:19:40 10° N 05:25:01 52° WNW 05:30:20 10° SW
MOZ.5/SAFIR/RUBIN 5/SL-8 4.5 05:22:56 10° SSW 05:27:01 31° W 05:31:08 10° NNW
Cosmos 1703 Rocket 4.4 05:26:25 15° SW 05:29:32 33° WNW 05:33:37 10° N
Cosmos 1140 Rocket 4.4 05:24:51 10° S 05:29:45 48° ESE 05:34:42 10° NNE
Okean-O 2.6 05:27:05 10° NNE 05:31:32 89° E 05:35:59 10° SSW
USA 234 4.1 05:28:44 10° NE 05:34:42 39° NNW 05:40:39 10° W
Meteor 1-25 Rocket 4.4 05:31:19 10° N 05:36:54 78° E 05:42:28 10° SSE
Geosat 4.0 05:33:18 10° NNE 05:38:22 88° ESE 05:43:24 10° SSW
CZ-2D R/B 4.0 05:40:34 10° NW 05:42:20 12° WNW 05:44:05 10° WNW
Abrixas rocket 2.2 05:39:12 10° WNW 05:42:32 88° SW 05:45:54 10° ESE
Cosmos 2341 Rocket 4.0 05:36:36 10° NNW 05:42:51 68° W 05:49:08 10° S
USA 116 4.3 05:38:51 10° S 05:43:41 71° W 05:48:58 10° NNW
SL-8 Rocket 4.3 05:38:10 10° N 05:44:23 75° E 05:50:37 10° SSE
PSLV R/B 3.7 05:41:37 10° N 05:45:55 55° WNW 05:50:12 10° SSW
Cosmos 2151 Rocket 3.5 05:44:39 10° NNW 05:49:03 74° W 05:53:25 10° S
Cosmos 1400 Rocket 4.1 05:46:00 10° N 05:49:45 44° ENE 05:53:28 10° SSE
COSMOS 2487 3.5 05:46:51 10° SW 05:50:03 29° WNW 05:53:16 10° N
Aureole 3 Rocket 4.5 05:46:04 10° SW 05:51:55 32° W 05:56:19 10° NNW
PSLV R/B 4.2 05:49:46 10° W 05:52:52 31° SSW 05:55:54 10° SE
NOAA 6 4.5 05:53:09 10° NNE 05:58:19 69° ESE 06:03:27 10° S
Okean 1-7 4.2 05:55:50 10° SW 05:59:23 24° WNW 06:02:57 10° NNW
ADEOS Rocket 3.7 05:52:58 10° N 06:00:33 60° WNW 06:08:03 10° SSW
Cosmos 1570 Rocket 4.4 05:55:36 10° NNW 06:00:51 73° ENE 06:06:04 10° SSE
COBE Rocket 4.4 05:55:46 10° NNE 06:00:57 71° E 06:06:00 10° S
